ASA42 PAWG-PAPG

Flight info

Callsign ASA42
Flight time N/A
Altitude 8000
Route KAJBU5 KAJBU
Aircraft B38M/M-SDE1FGHILORVWXY/HB1

Departure

Time 2026-04-24 23:19
Airport Wrangell Airport (PAWG)

Arrival

Time N/A
Airport Petersburg James A Johnson Airport (PAPG)
Time Latitude Longitude Altitude Speed Heading
2026-04-24 23:13 56.48017 -132.35767 32 ft 0 kts 301°
2026-04-24 23:18 56.48018 -132.35768 32 ft 1 kts 301°
2026-04-24 23:18 56.48048 -132.35857 33 ft 21 kts 301°
2026-04-24 23:18 56.48304 -132.36618 31 ft 118 kts 301°
2026-04-24 23:19 56.48835 -132.38205 371 ft 161 kts 299°
2026-04-24 23:19 56.49251 -132.40121 1297 ft 167 kts 285°
2026-04-24 23:19 56.49583 -132.42154 2142 ft 177 kts 287°
2026-04-24 23:19 56.49781 -132.44530 2794 ft 205 kts 274°
2026-04-24 23:20 56.49888 -132.47301 3542 ft 237 kts 273°
2026-04-24 23:20 56.50107 -132.50395 4135 ft 258 kts 287°
2026-04-24 23:20 56.50954 -132.53257 4175 ft 262 kts 308°
2026-04-24 23:20 56.52065 -132.55888 4314 ft 264 kts 301°
2026-04-24 23:21 56.52983 -132.58771 4478 ft 265 kts 300°
2026-04-24 23:21 56.53917 -132.61652 4625 ft 265 kts 300°
2026-04-24 23:21 56.54864 -132.64528 4785 ft 266 kts 301°
2026-04-24 23:21 56.55819 -132.67405 4920 ft 266 kts 301°
2026-04-24 23:22 56.56752 -132.70197 4953 ft 256 kts 301°
2026-04-24 23:22 56.57678 -132.72958 4660 ft 257 kts 301°
2026-04-24 23:22 56.58604 -132.75719 4340 ft 255 kts 301°
2026-04-24 23:22 56.59515 -132.78435 4179 ft 248 kts 301°
2026-04-24 23:23 56.60401 -132.81075 4063 ft 242 kts 301°
2026-04-24 23:23 56.61256 -132.83627 3944 ft 232 kts 301°
2026-04-24 23:23 56.62081 -132.86091 3808 ft 224 kts 301°
2026-04-24 23:23 56.62875 -132.88465 3682 ft 216 kts 301°
2026-04-24 23:24 56.63643 -132.90763 3549 ft 209 kts 301°
2026-04-24 23:24 56.64450 -132.92836 3433 ft 195 kts 319°
2026-04-24 23:24 56.65640 -132.93805 3266 ft 185 kts 351°
2026-04-24 23:24 56.66889 -132.93953 3140 ft 175 kts 357°
2026-04-24 23:25 56.68061 -132.94024 2998 ft 159 kts 358°
2026-04-24 23:25 56.69155 -132.94073 2790 ft 156 kts 358°
2026-04-24 23:25 56.70235 -132.94113 2575 ft 154 kts 358°
2026-04-24 23:25 56.71264 -132.94176 2478 ft 144 kts 358°
2026-04-24 23:26 56.72237 -132.94340 2412 ft 140 kts 348°
2026-04-24 23:26 56.73159 -132.94861 2307 ft 138 kts 335°
2026-04-24 23:26 56.73976 -132.95769 2159 ft 138 kts 321°
2026-04-24 23:26 56.74632 -132.97025 1947 ft 137 kts 305°
2026-04-24 23:27 56.75084 -132.98534 1707 ft 136 kts 295°
2026-04-24 23:27 56.75589 -132.99983 1476 ft 136 kts 310°
2026-04-24 23:27 56.76322 -133.01042 1255 ft 136 kts 333°
2026-04-24 23:27 56.77230 -133.01460 1026 ft 136 kts 357°
2026-04-24 23:28 56.78148 -133.01180 827 ft 136 kts 20°
2026-04-24 23:28 56.78948 -133.00262 638 ft 137 kts 43°
2026-04-24 23:28 56.79494 -132.98859 455 ft 137 kts 65°
2026-04-24 23:28 56.79747 -132.97162 327 ft 149 kts 81°
2026-04-24 23:29 56.79920 -132.95343 945 ft 148 kts 75°
2026-04-24 23:29 56.80290 -132.93498 1507 ft 159 kts 67°
2026-04-24 23:29 56.80725 -132.91602 2323 ft 170 kts 67°
2026-04-24 23:29 56.81208 -132.89446 2999 ft 197 kts 68°
2026-04-24 23:30 56.81751 -132.86998 3796 ft 219 kts 68°
2026-04-24 23:30 56.82207 -132.84206 4246 ft 240 kts 86°
2026-04-24 23:30 56.81775 -132.81299 4219 ft 244 kts 125°
2026-04-24 23:30 56.80518 -132.79261 4290 ft 247 kts 144°
2026-04-24 23:31 56.79171 -132.77160 4328 ft 260 kts 138°
2026-04-24 23:31 56.77727 -132.75110 4428 ft 268 kts 144°
2026-04-24 23:31 56.76209 -132.73086 5126 ft 270 kts 144°
2026-04-24 23:31 56.74677 -132.71029 5040 ft 284 kts 144°
2026-04-24 23:32 56.73083 -132.68876 4780 ft 277 kts 143°
2026-04-24 23:32 56.71578 -132.66841 4546 ft 262 kts 143°
2026-04-24 23:32 56.70144 -132.64900 4222 ft 253 kts 143°
2026-04-24 23:32 56.68758 -132.63024 3942 ft 242 kts 143°
2026-04-24 23:33 56.67456 -132.61263 3813 ft 225 kts 144°
2026-04-24 23:33 56.66638 -132.60158 3695 ft 217 kts 144°
2026-04-24 23:33 56.65075 -132.58046 3463 ft 201 kts 144°
2026-04-24 23:33 56.63978 -132.56566 3331 ft 192 kts 144°
2026-04-24 23:34 56.62940 -132.55176 3245 ft 180 kts 144°
2026-04-24 23:34 56.61952 -132.53859 3086 ft 173 kts 144°
2026-04-24 23:34 56.60987 -132.52573 2862 ft 171 kts 144°
2026-04-24 23:34 56.60029 -132.51296 2616 ft 170 kts 144°
2026-04-24 23:35 56.59081 -132.50033 2412 ft 166 kts 144°
2026-04-24 23:35 56.58191 -132.48848 2311 ft 156 kts 144°
2026-04-24 23:35 56.57320 -132.47690 2194 ft 155 kts 144°
2026-04-24 23:35 56.56454 -132.46538 2073 ft 152 kts 144°
2026-04-24 23:36 56.55619 -132.45429 1890 ft 146 kts 144°
2026-04-24 23:36 56.54812 -132.44357 1667 ft 141 kts 144°
2026-04-24 23:36 56.54030 -132.43323 1438 ft 138 kts 146°
2026-04-24 23:36 56.53180 -132.42594 1208 ft 137 kts 165°
2026-04-24 23:37 56.52242 -132.42385 995 ft 136 kts 183°
2026-04-24 23:37 56.51298 -132.42440 796 ft 136 kts 176°
2026-04-24 23:37 56.49724 -132.40776 389 ft 136 kts 126°
2026-04-24 23:38 56.49223 -132.39323 218 ft 136 kts 121°
2026-04-24 23:38 56.48722 -132.37861 114 ft 144 kts 128°
2026-04-24 23:38 56.48146 -132.36366 650 ft 147 kts 123°
2026-04-24 23:38 56.47692 -132.34664 1251 ft 157 kts 104°
2026-04-24 23:39 56.47522 -132.32697 1613 ft 161 kts 96°
2026-04-24 23:39 56.47369 -132.30675 1712 ft 166 kts 99°
2026-04-24 23:39 56.47149 -132.28553 2062 ft 180 kts 102°
2026-04-24 23:39 56.46780 -132.26223 2731 ft 205 kts 114°
2026-04-24 23:40 56.46029 -132.24000 3916 ft 199 kts 126°
2026-04-24 23:40 56.45486 -132.22623 4821 ft 201 kts 126°
2026-04-24 23:40 56.43943 -132.20410 5405 ft 231 kts 167°
2026-04-24 23:40 56.42313 -132.20431 5512 ft 240 kts 195°
2026-04-24 23:41 56.41311 -132.21329 5528 ft 241 kts 221°
2026-04-24 23:41 56.40446 -132.23867 5612 ft 242 kts 259°
2026-04-24 23:41 56.40407 -132.26871 5763 ft 245 kts 279°
2026-04-24 23:41 56.41043 -132.29790 5875 ft 256 kts 306°
2026-04-24 23:42 56.42396 -132.31893 5923 ft 266 kts 328°
2026-04-24 23:42 56.43957 -132.33750 5948 ft 271 kts 325°
2026-04-24 23:42 56.45514 -132.35702 5968 ft 273 kts 324°
2026-04-24 23:42 56.47070 -132.37659 5981 ft 272 kts 324°
2026-04-24 23:43 56.48623 -132.39615 5993 ft 272 kts 324°
2026-04-24 23:43 56.50171 -132.41569 5992 ft 271 kts 324°
2026-04-24 23:43 56.51718 -132.43522 5997 ft 271 kts 324°
2026-04-24 23:43 56.53269 -132.45484 5996 ft 272 kts 324°
2026-04-24 23:44 56.54814 -132.47439 5846 ft 270 kts 324°
2026-04-24 23:44 56.56348 -132.49384 5542 ft 268 kts 324°
2026-04-24 23:44 56.57870 -132.51313 5254 ft 265 kts 324°
2026-04-24 23:44 56.59375 -132.53223 4961 ft 263 kts 324°
2026-04-24 23:45 56.60871 -132.55123 4664 ft 261 kts 324°
2026-04-24 23:45 56.62352 -132.57007 4372 ft 259 kts 324°
2026-04-24 23:45 56.63808 -132.58860 4222 ft 251 kts 324°
2026-04-24 23:45 56.65215 -132.60649 4094 ft 243 kts 324°
2026-04-24 23:46 56.66576 -132.62383 3964 ft 235 kts 324°
2026-04-24 23:46 56.67890 -132.64058 3863 ft 225 kts 324°
2026-04-24 23:46 56.69147 -132.65662 3751 ft 217 kts 324°
2026-04-24 23:46 56.70348 -132.67197 3629 ft 204 kts 324°
2026-04-24 23:47 56.71477 -132.68641 3486 ft 193 kts 324°
2026-04-24 23:47 56.72549 -132.70016 3340 ft 184 kts 324°
2026-04-24 23:47 56.73567 -132.71324 3191 ft 175 kts 324°
2026-04-24 23:47 56.74542 -132.72578 3027 ft 169 kts 324°
2026-04-24 23:48 56.75494 -132.73805 2800 ft 167 kts 324°
2026-04-24 23:48 56.76437 -132.75021 2570 ft 165 kts 324°
2026-04-24 23:48 56.77363 -132.76216 2407 ft 162 kts 324°
2026-04-24 23:48 56.78268 -132.77384 2326 ft 155 kts 324°
2026-04-24 23:49 56.79183 -132.78328 2239 ft 147 kts 336°
2026-04-24 23:49 56.80110 -132.78981 2128 ft 140 kts 338°
2026-04-24 23:49 56.80958 -132.79774 1956 ft 136 kts 323°
2026-04-24 23:49 56.81613 -132.80990 1703 ft 134 kts 304°
2026-04-24 23:50 56.82006 -132.82516 1442 ft 133 kts 285°
2026-04-24 23:50 56.82110 -132.84182 1218 ft 132 kts 267°
2026-04-24 23:50 56.81931 -132.85801 1025 ft 132 kts 250°
2026-04-24 23:50 56.81573 -132.87371 844 ft 132 kts 248°
2026-04-24 23:51 56.81245 -132.88934 661 ft 132 kts 250°
2026-04-24 23:51 56.80939 -132.90504 479 ft 131 kts 251°
2026-04-24 23:51 56.80639 -132.92051 290 ft 131 kts 250°
2026-04-24 23:51 56.80337 -132.93624 160 ft 138 kts 251°
2026-04-24 23:52 56.80017 -132.95301 655 ft 143 kts 250°
2026-04-24 23:52 56.79657 -132.97080 1436 ft 151 kts 246°
2026-04-24 23:52 56.79040 -132.98676 2324 ft 162 kts 222°
2026-04-24 23:52 56.77969 -132.99637 2967 ft 188 kts 190°
2026-04-24 23:53 56.76576 -132.99292 3605 ft 225 kts 154°
2026-04-24 23:53 56.75255 -132.97470 4393 ft 248 kts 136°
2026-04-24 23:53 56.73951 -132.95392 4544 ft 248 kts 146°
2026-04-24 23:53 56.72391 -132.94167 4671 ft 245 kts 171°
2026-04-24 23:54 56.70688 -132.94067 4832 ft 246 kts 181°
2026-04-24 23:54 56.68970 -132.94097 4934 ft 247 kts 179°
2026-04-24 23:54 56.67326 -132.93335 4944 ft 246 kts 148°
2026-04-24 23:54 56.66100 -132.91179 5013 ft 248 kts 124°
2026-04-24 23:55 56.65326 -132.88376 5013 ft 249 kts 114°
2026-04-24 23:55 56.64582 -132.85404 5316 ft 267 kts 115°
2026-04-24 23:55 56.63793 -132.82305 5270 ft 272 kts 115°
2026-04-24 23:55 56.62994 -132.79192 5139 ft 272 kts 115°
2026-04-24 23:56 56.62193 -132.76083 4990 ft 272 kts 115°
2026-04-24 23:56 56.61395 -132.72989 4830 ft 269 kts 115°
2026-04-24 23:56 56.60609 -132.69947 4627 ft 263 kts 115°
2026-04-24 23:56 56.59843 -132.66980 4459 ft 257 kts 115°
2026-04-24 23:57 56.59085 -132.64058 4194 ft 256 kts 115°
2026-04-24 23:57 56.58337 -132.61174 4049 ft 249 kts 115°
2026-04-24 23:57 56.57612 -132.58384 3936 ft 240 kts 115°
2026-04-24 23:57 56.56911 -132.55689 3815 ft 232 kts 115°
2026-04-24 23:58 56.56231 -132.53083 3700 ft 224 kts 115°
2026-04-24 23:58 56.55579 -132.50587 3603 ft 215 kts 115°
2026-04-24 23:58 56.54948 -132.48175 3458 ft 209 kts 116°
2026-04-24 23:58 56.54337 -132.45850 3303 ft 200 kts 115°
2026-04-24 23:59 56.53750 -132.43614 3158 ft 191 kts 116°
2026-04-24 23:59 56.53200 -132.41527 3099 ft 177 kts 116°
2026-04-24 23:59 56.52733 -132.39518 2934 ft 171 kts 110°
2026-04-24 23:59 56.52340 -132.37534 2713 ft 160 kts 110°
2026-04-25 00:00 56.51968 -132.35669 2437 ft 156 kts 110°
2026-04-25 00:00 56.51615 -132.33885 2203 ft 147 kts 110°
2026-04-25 00:00 56.51271 -132.32182 1981 ft 142 kts 110°
2026-04-25 00:00 56.50935 -132.30535 1787 ft 138 kts 110°
2026-04-25 00:01 56.50521 -132.28979 1571 ft 137 kts 124°
2026-04-25 00:01 56.49817 -132.27850 1344 ft 136 kts 154°
2026-04-25 00:01 56.48906 -132.27523 1119 ft 134 kts 184°
2026-04-25 00:01 56.48029 -132.28027 941 ft 133 kts 212°
2026-04-25 00:02 56.47387 -132.29199 774 ft 132 kts 239°
2026-04-25 00:02 56.47107 -132.30764 617 ft 132 kts 265°
2026-04-25 00:02 56.47231 -132.32390 465 ft 131 kts 287°
2026-04-25 00:02 56.47512 -132.33960 312 ft 131 kts 290°
2026-04-25 00:03 56.47907 -132.35443 152 ft 130 kts 299°
2026-04-25 00:03 56.48433 -132.36874 267 ft 142 kts 302°
2026-04-25 00:03 56.48962 -132.38430 794 ft 150 kts 301°
2026-04-25 00:03 56.49372 -132.40166 1585 ft 152 kts 285°
2026-04-25 00:04 56.49674 -132.42081 2367 ft 168 kts 285°
2026-04-25 00:04 56.49841 -132.44381 3010 ft 203 kts 272°
2026-04-25 00:04 56.49903 -132.47124 3873 ft 230 kts 272°
2026-04-25 00:04 56.49965 -132.50179 4655 ft 257 kts 270°
2026-04-25 00:05 56.49807 -132.53431 4710 ft 263 kts 263°
2026-04-25 00:05 56.49598 -132.56741 4832 ft 266 kts 264°
2026-04-25 00:05 56.49514 -132.60079 4924 ft 266 kts 277°
2026-04-25 00:05 56.49973 -132.63323 5025 ft 269 kts 285°
2026-04-25 00:06 56.50460 -132.66603 5825 ft 268 kts 284°
2026-04-25 00:06 56.50924 -132.69860 7298 ft 268 kts 284°
2026-04-25 00:06 56.51388 -132.73179 8538 ft 276 kts 284°
2026-04-25 00:06 56.51856 -132.76593 9755 ft 282 kts 284°
2026-04-25 00:07 56.52331 -132.80096 10827 ft 294 kts 283°
2026-04-25 00:07 56.52829 -132.83794 11698 ft 309 kts 283°
2026-04-25 00:07 56.53345 -132.87649 12566 ft 322 kts 283°
2026-04-25 00:07 56.53873 -132.91606 12869 ft 323 kts 283°
2026-04-25 00:08 56.54399 -132.95561 12977 ft 323 kts 283°
2026-04-25 00:08 56.54925 -132.99516 12998 ft 322 kts 283°
2026-04-25 00:08 56.55447 -133.03461 12999 ft 322 kts 283°
2026-04-25 00:08 56.55961 -133.07352 12999 ft 322 kts 283°
2026-04-25 00:09 56.56487 -133.11344 13001 ft 322 kts 283°
2026-04-25 00:09 56.56999 -133.15238 13000 ft 322 kts 283°
2026-04-25 00:09 56.57518 -133.19196 13000 ft 322 kts 283°
2026-04-25 00:09 56.58035 -133.23152 13004 ft 322 kts 283°
2026-04-25 00:10 56.58550 -133.27102 12997 ft 322 kts 283°
2026-04-25 00:10 56.59064 -133.31056 13002 ft 322 kts 283°
2026-04-25 00:10 56.59578 -133.35017 13000 ft 323 kts 283°
2026-04-25 00:10 56.60090 -133.38985 13005 ft 323 kts 283°
2026-04-25 00:11 56.60602 -133.42951 13000 ft 323 kts 283°
2026-04-25 00:11 56.61111 -133.46912 12993 ft 324 kts 283°
2026-04-25 00:11 56.61625 -133.50917 12997 ft 326 kts 283°
2026-04-25 00:11 56.62138 -133.54934 12999 ft 327 kts 283°
2026-04-25 00:12 56.62651 -133.58957 13000 ft 327 kts 283°
2026-04-25 00:12 56.63162 -133.62977 13000 ft 327 kts 283°
2026-04-25 00:12 56.63686 -133.67110 12999 ft 344 kts 283°
2026-04-25 00:12 56.64234 -133.71455 12993 ft 361 kts 283°
2026-04-25 00:13 56.64806 -133.76009 12987 ft 378 kts 283°
2026-04-25 00:13 56.65396 -133.80709 12991 ft 382 kts 283°
2026-04-25 00:13 56.65986 -133.85423 12997 ft 383 kts 283°
2026-04-25 00:13 56.66575 -133.90141 12998 ft 383 kts 283°
2026-04-25 00:14 56.67162 -133.94858 13000 ft 383 kts 282°
2026-04-25 00:14 56.67747 -133.99580 12999 ft 383 kts 282°
2026-04-25 00:14 56.68331 -134.04306 13000 ft 383 kts 282°
2026-04-25 00:14 56.68914 -134.09037 13000 ft 383 kts 282°
2026-04-25 00:15 56.69494 -134.13768 13006 ft 382 kts 282°
2026-04-25 00:15 56.70058 -134.18368 13007 ft 363 kts 282°
2026-04-25 00:15 56.70593 -134.22747 13013 ft 346 kts 282°
2026-04-25 00:15 56.71101 -134.26918 13017 ft 330 kts 282°
2026-04-25 00:16 56.71593 -134.30981 13016 ft 328 kts 282°
2026-04-25 00:16 56.72083 -134.35030 13005 ft 328 kts 282°
2026-04-25 00:16 56.72568 -134.39059 12845 ft 324 kts 282°
2026-04-25 00:16 56.73050 -134.43069 12405 ft 324 kts 282°
2026-04-25 00:17 56.73529 -134.47067 12004 ft 322 kts 282°
2026-04-25 00:17 56.74002 -134.51028 11645 ft 318 kts 282°
2026-04-25 00:17 56.74469 -134.54951 11296 ft 315 kts 282°
2026-04-25 00:17 56.74929 -134.58828 10953 ft 311 kts 282°
2026-04-25 00:18 56.75383 -134.62661 10612 ft 308 kts 282°
2026-04-25 00:18 56.75831 -134.66457 10279 ft 305 kts 282°
2026-04-25 00:18 56.76270 -134.70186 10098 ft 296 kts 282°
2026-04-25 00:18 56.76696 -134.73809 9874 ft 290 kts 282°
2026-04-25 00:19 56.77109 -134.77341 9558 ft 288 kts 282°
2026-04-25 00:19 56.77524 -134.80897 9234 ft 286 kts 282°
2026-04-25 00:19 56.77936 -134.84430 8918 ft 283 kts 282°
2026-04-25 00:19 56.78340 -134.87912 8591 ft 278 kts 282°
2026-04-25 00:20 56.78735 -134.91319 8300 ft 272 kts 282°
2026-04-25 00:20 56.79122 -134.94665 8006 ft 268 kts 282°
2026-04-25 00:20 56.79504 -134.97977 7711 ft 266 kts 282°
2026-04-25 00:20 56.79883 -135.01279 7410 ft 265 kts 282°
2026-04-25 00:21 56.80259 -135.04555 7121 ft 263 kts 282°
2026-04-25 00:21 56.80632 -135.07816 6829 ft 262 kts 282°
2026-04-25 00:21 56.81003 -135.11063 6526 ft 261 kts 282°
2026-04-25 00:21 56.81370 -135.14294 6239 ft 259 kts 282°
2026-04-25 00:22 56.81735 -135.17509 5936 ft 258 kts 281°
2026-04-25 00:22 56.82098 -135.20713 5631 ft 256 kts 281°
2026-04-25 00:22 56.82454 -135.23863 5348 ft 250 kts 281°
2026-04-25 00:22 56.82798 -135.26913 5068 ft 240 kts 281°
2026-04-25 00:23 56.83127 -135.29838 4858 ft 231 kts 281°
2026-04-25 00:23 56.83446 -135.32679 4658 ft 227 kts 281°
2026-04-25 00:23 56.83762 -135.35497 4386 ft 224 kts 281°
2026-04-25 00:23 56.84066 -135.38222 4195 ft 213 kts 281°
2026-04-25 00:24 56.84347 -135.40742 4099 ft 192 kts 281°
2026-04-25 00:24 56.84602 -135.43036 3998 ft 177 kts 281°
2026-04-25 00:24 56.84840 -135.45173 3912 ft 168 kts 281°
2026-04-25 00:24 56.85071 -135.47259 3839 ft 167 kts 281°
2026-04-25 00:25 56.85328 -135.49324 3785 ft 167 kts 290°
2026-04-25 00:25 56.86037 -135.50948 3670 ft 166 kts 328°
2026-04-25 00:25 56.87134 -135.51513 3568 ft 167 kts
2026-04-25 00:25 56.88226 -135.50866 3494 ft 168 kts 34°
2026-04-25 00:26 56.89130 -135.49511 3446 ft 169 kts 40°
2026-04-25 00:26 56.90015 -135.48088 3356 ft 169 kts 41°
2026-04-25 00:26 56.90890 -135.46657 3230 ft 169 kts 41°
2026-04-25 00:26 56.91762 -135.45218 3083 ft 169 kts 41°
2026-04-25 00:27 56.92341 -135.44256 2937 ft 170 kts 42°
2026-04-25 00:27 56.93507 -135.42305 2621 ft 169 kts 42°
2026-04-25 00:27 56.94078 -135.41344 2493 ft 167 kts 42°
2026-04-25 00:27 56.94929 -135.39899 2340 ft 167 kts 43°
2026-04-25 00:28 56.95764 -135.38424 2207 ft 167 kts 43°
2026-04-25 00:28 56.96599 -135.36945 2063 ft 167 kts 43°
2026-04-25 00:28 56.97413 -135.35497 1862 ft 160 kts 43°
2026-04-25 00:28 56.98178 -135.34133 1632 ft 146 kts 44°
2026-04-25 00:29 56.98889 -135.32865 1424 ft 140 kts 44°
2026-04-25 00:29 56.99646 -135.31775 1173 ft 138 kts 29°
2026-04-25 00:29 57.00537 -135.31184 933 ft 136 kts
2026-04-25 00:29 57.01476 -135.31199 720 ft 135 kts 348°
2026-04-25 00:30 57.02349 -135.31798 526 ft 134 kts 329°
2026-04-25 00:30 57.03048 -135.32904 337 ft 133 kts 309°
2026-04-25 00:30 57.03630 -135.34228 167 ft 133 kts 309°
2026-04-25 00:30 57.04334 -135.35435 224 ft 147 kts 317°
2026-04-25 00:31 57.05103 -135.36707 806 ft 153 kts 315°
2026-04-25 00:31 57.05837 -135.38147 1639 ft 158 kts 313°
2026-04-25 00:31 57.06603 -135.39754 2147 ft 179 kts 298°
2026-04-25 00:31 57.06818 -135.42023 2189 ft 189 kts 259°
2026-04-25 00:32 57.06411 -135.44410 2344 ft 205 kts 250°
2026-04-25 00:32 57.05908 -135.46975 2460 ft 223 kts 250°
2026-04-25 00:32 57.05363 -135.49719 2534 ft 232 kts 250°